Regional Weather Roundup
Issued by NWS Midland/Odessa, TX

Home | Current Version | Previous Version | Text Only | Print | Product List | Glossary On
Versions: 1 2 3 4 5 6 7 8 9 10 11 12 13 14 15 16 17 18 19 20 21 22 23 24 25 26 27 28 29 30 31 32 33 34 35 36 37 38 39 40 41 42 43 44 45 46 47 48 49 50
000
ASUS44 KMAF 272210
RWRMAF
MIDLAND AREA WEATHER ROUNDUP
NATIONAL WEATHER SERVICE MIDLAND TX
500 PM CDT FRI MAR 27 2015

...IN SOUTHWEST TEXAS AND SOUTHEAST NEW MEXICO...

CITY           SKY/WX    TMP DP  RH WIND       PRES   REMARKS
ALPINE         SUNNY     75  24  15 SW12      30.24F
ANDREWS        FAIR      79  29  16 MISG      30.10F
ARTESIA        SUNNY     79  28  15 S7G13     30.09F
BIG SPRING     SUNNY     82  28  14 SW10G18   30.12F
CARLSBAD       SUNNY     81  28  14 S8        30.08F
DRYDEN           N/A     81  28  14 MISG      30.10F
FORT STOCKTON  SUNNY     81  22  11 W12       30.11F
GUAD PASS      SUNNY     73  28  18 W20G30    30.22F
HOBBS          SUNNY     77  21  12 W8G16     30.11F
MARFA          SUNNY     73  27  17 W8        30.24S
MIDLAND AIRPK  SUNNY     78  27  15 SW12      30.12F
MIDLAND INTL   SUNNY     78  30  17 SW15      30.11F
ODESSA         SUNNY     77  26  15 SW13      30.12F
PECOS          SUNNY     82  31  15 W12G21    30.08F
PRESIDIO       FAIR      78  34  19 W3        30.14F
SEMINOLE       SUNNY     78  26  14 W6G16     30.10F
SNYDER         SUNNY     76  32  19 SE9       30.10F
WINK           SUNNY     81  25  12 VRB7      30.08F
$$
...OTHER STATIONS IN TEXAS...

CITY           SKY/WX    TMP DP  RH WIND       PRES   REMARKS
ABILENE        SUNNY     76  31  19 VRB5      30.11F
AMARILLO       SUNNY     72  27  18 S6        30.11F
AUSTIN         MOSUNNY   79  35  20 NW10      30.09F
BROWNSVILLE    MOSUNNY   78  39  24 VRB6      30.15F
CORPUS CHRISTI MOSUNNY   77  39  25 CALM      30.13F
DALLAS FTW     PTSUNNY   68  41  37 N6        30.12F
DEL RIO        SUNNY     81  33  17 VRB7      30.09F
EL PASO        SUNNY     77  20  12 SW3       30.15F
HOUSTON INT    MOSUNNY   79  36  21 NW9       30.07F
LUBBOCK        MOSUNNY   77  27  15 SE13      30.09F
SAN ANGELO     SUNNY     79  31  17 SW15      30.10F
SAN ANTONIO    MOSUNNY   78  33  19 SW10G18   30.12F
WACO           SUNNY     75  43  31 N8        30.11F
WICHITA FALLS  NOT AVBL
$$
...OTHER LOCATIONS IN NEW MEXICO...

CITY           SKY/WX    TMP DP  RH WIND       PRES   REMARKS
ALAMAGORDO     SUNNY     75  18  11 NW8       30.16F
ALBUQUERQUE    SUNNY     75  20  12 W15       30.17F
CANNON AFB     SUNNY     73  25  16 VRB2      30.11F
CLOVIS         SUNNY     73  27  17 SW6       30.12F
HOLLOMAN AFB   MOSUNNY   75  18  11 W8        30.14F
ROSWELL        SUNNY     81  25  12 E6        30.08F
RUIDOSO        SUNNY     66  16  14 NW13G20   30.27F
SANTA FE       SUNNY     70  16  12 VRB7      30.17F
TRUTH OR CONSE SUNNY     77  16  10 S12G18    30.16F
TUCUMCARI      SUNNY     74  21  13 SE5       30.09F
$$


USA.gov is the U.S. government's official web portal to all federal, state and local government web resources and services.